When you browse on this site, cookies collect data to enhance your experience and personalize the content and advertising you see.
Visit our Privacy Policy to learn more. By continuing to use the site, you agree to this use of cookies and data.
  • In Hungary
  • List of Countries
  • For 7 days
  • Water Temperature
  • Weather Map
  • News
  • Weather Widgets
  • user-avatar
    Login

    Hourly Weather Amposta

    Today, 3 April, Friday

    Time Temperature Precipitation Wind Pressure Humidity
    00:00 +7°C° 0 mm 2 mps 705 mmHg 70%
    01:00 +7°C° 0 mm 2 mps 705 mmHg 71%
    02:00 +6°C° 0 mm 2 mps 705 mmHg 72%
    03:00 +6°C° 0 mm 1 mps 705 mmHg 72%
    04:00 +6°C° 0 mm 1 mps 705 mmHg 73%
    05:00 +6°C° 0 mm 1 mps 705 mmHg 73%
    06:00 +5°C° 0 mm 1 mps 706 mmHg 73%
    07:00 +7°C° 0 mm 1 mps 706 mmHg 68%
    08:00 +9°C° 0 mm 1 mps 706 mmHg 62%
    09:00 +10°C° 0 mm 1 mps 706 mmHg 56%
    10:00 +12°C° 0 mm 1 mps 706 mmHg 50%
    11:00 +13°C° 0 mm 1 mps 706 mmHg 44%
    12:00 +15°C° 0 mm 1 mps 706 mmHg 38%
    13:00 +16°C° 0 mm 1 mps 705 mmHg 36%
    14:00 +16°C° 0 mm 1 mps 705 mmHg 33%
    15:00 +18°C° 0 mm 1 mps 705 mmHg 31%
    16:00 +16°C° 0 mm 1 mps 705 mmHg 34%
    17:00 +16°C° 0 mm 1 mps 704 mmHg 37%
    18:00 +15°C° 0 mm 2 mps 704 mmHg 41%
    19:00 +14°C° 0 mm 1 mps 705 mmHg 42%
    20:00 +13°C° 0 mm 1 mps 705 mmHg 44%
    21:00 +11°C° 0 mm 1 mps 705 mmHg 45%
    22:00 +11°C° 0 mm 1 mps 705 mmHg 47%
    23:00 +10°C° 0 mm 1 mps 706 mmHg 48%

    Tomorrow, 4 April, Saturday

    Time Temperature Precipitation Wind Pressure Humidity
    00:00 +10°C° 0 mm 1 mps 706 mmHg 49%
    01:00 +9°C° 0 mm 1 mps 706 mmHg 52%
    02:00 +8°C° 0 mm 2 mps 706 mmHg 54%
    03:00 +7°C° 0 mm 2 mps 705 mmHg 57%
    04:00 +7°C° 0 mm 2 mps 705 mmHg 65%
    05:00 +6°C° 0 mm 2 mps 705 mmHg 73%
    06:00 +6°C° 0 mm 2 mps 705 mmHg 80%
    07:00 +8°C° 0 mm 2 mps 705 mmHg 74%
    08:00 +9°C° 0 mm 3 mps 706 mmHg 68%
    09:00 +11°C° 0 mm 3 mps 706 mmHg 62%
    10:00 +13°C° 0 mm 4 mps 706 mmHg 55%
    11:00 +15°C° 0 mm 4 mps 706 mmHg 48%
    12:00 +17°C° 0 mm 5 mps 706 mmHg 40%
    13:00 +17°C° 0 mm 5 mps 705 mmHg 40%
    14:00 +17°C° 0 mm 6 mps 705 mmHg 40%
    15:00 +19°C° 0 mm 6 mps 705 mmHg 39%
    16:00 +17°C° 0 mm 6 mps 705 mmHg 44%
    17:00 +16°C° 0 mm 6 mps 705 mmHg 49%
    18:00 +15°C° 0 mm 6 mps 705 mmHg 54%
    19:00 +14°C° 0 mm 5 mps 705 mmHg 59%
    20:00 +13°C° 0 mm 5 mps 706 mmHg 63%
    21:00 +12°C° 0 mm 4 mps 706 mmHg 68%
    22:00 +11°C° 0 mm 4 mps 706 mmHg 70%
    23:00 +11°C° 0 mm 4 mps 707 mmHg 71%

    Day after tomorrow, 5 April, Sunday

    Time Temperature Precipitation Wind Pressure Humidity
    00:00 +10°C° 0 mm 4 mps 707 mmHg 73%
    01:00 +10°C° 0 mm 3 mps 707 mmHg 74%
    02:00 +10°C° 0 mm 3 mps 707 mmHg 75%
    03:00 +10°C° 0 mm 3 mps 707 mmHg 77%
    04:00 +10°C° 0.1 mm 3 mps 707 mmHg 78%
    05:00 +10°C° 0.1 mm 3 mps 707 mmHg 79%
    06:00 +10°C° 0.1 mm 3 mps 707 mmHg 80%
    07:00 +10°C° 0 mm 3 mps 707 mmHg 77%
    08:00 +11°C° 0 mm 3 mps 707 mmHg 74%
    09:00 +12°C° 0 mm 3 mps 707 mmHg 71%
    10:00 +13°C° 0 mm 3 mps 707 mmHg 68%
    11:00 +13°C° 0 mm 3 mps 707 mmHg 65%
    12:00 +15°C° 0 mm 2 mps 707 mmHg 62%
    13:00 +16°C° 0 mm 2 mps 707 mmHg 58%
    14:00 +17°C° 0 mm 2 mps 706 mmHg 54%
    15:00 +18°C° 0 mm 2 mps 706 mmHg 51%
    16:00 +18°C° 0 mm 3 mps 706 mmHg 53%
    17:00 +18°C° 0 mm 3 mps 706 mmHg 56%
    18:00 +18°C° 0 mm 3 mps 706 mmHg 59%
    19:00 +17°C° 0.2 mm 3 mps 706 mmHg 65%
    20:00 +15°C° 0.2 mm 4 mps 706 mmHg 71%
    21:00 +14°C° 0.2 mm 4 mps 707 mmHg 77%
    22:00 +14°C° 0.4 mm 4 mps 707 mmHg 81%
    23:00 +13°C° 0.4 mm 4 mps 707 mmHg 86%

    6 April, Monday

    Time Temperature Precipitation Wind Pressure Humidity
    00:00 +13°C° 0.4 mm 4 mps 707 mmHg 91%
    01:00 +13°C° 0.5 mm 4 mps 706 mmHg 91%
    02:00 +13°C° 0.5 mm 4 mps 706 mmHg 92%
    03:00 +12°C° 0.5 mm 3 mps 706 mmHg 92%
    04:00 +12°C° 0.4 mm 3 mps 706 mmHg 93%
    05:00 +12°C° 0.4 mm 3 mps 706 mmHg 93%
    06:00 +12°C° 0.4 mm 3 mps 707 mmHg 93%
    07:00 +12°C° 0.5 mm 3 mps 707 mmHg 90%
    08:00 +13°C° 0.5 mm 3 mps 707 mmHg 87%
    09:00 +13°C° 0.5 mm 3 mps 708 mmHg 85%
    10:00 +14°C° 0.3 mm 2 mps 708 mmHg 80%
    11:00 +15°C° 0.3 mm 2 mps 708 mmHg 76%
    12:00 +15°C° 0.3 mm 2 mps 709 mmHg 72%
    13:00 +16°C° 0.4 mm 2 mps 709 mmHg 72%
    14:00 +16°C° 0.4 mm 2 mps 709 mmHg 71%
    15:00 +16°C° 0.4 mm 2 mps 709 mmHg 71%
    16:00 +16°C° 0.2 mm 2 mps 709 mmHg 71%
    17:00 +16°C° 0.2 mm 2 mps 709 mmHg 72%
    18:00 +16°C° 0.2 mm 2 mps 709 mmHg 72%
    19:00 +15°C° 0.1 mm 2 mps 710 mmHg 76%
    20:00 +13°C° 0.1 mm 2 mps 710 mmHg 80%
    21:00 +12°C° 0.1 mm 2 mps 711 mmHg 84%
    22:00 +12°C° 0 mm 2 mps 711 mmHg 84%
    23:00 +12°C° 0 mm 2 mps 712 mmHg 84%

    7 April, Tuesday

    Time Temperature Precipitation Wind Pressure Humidity
    00:00 +11°C° 0 mm 3 mps 712 mmHg 84%
    01:00 +11°C° 0 mm 3 mps 712 mmHg 84%
    02:00 +10°C° 0 mm 3 mps 712 mmHg 85%
    03:00 +10°C° 0 mm 3 mps 712 mmHg 85%
    04:00 +9°C° 0 mm 3 mps 712 mmHg 85%
    05:00 +9°C° 0 mm 3 mps 712 mmHg 85%
    06:00 +8°C° 0 mm 3 mps 712 mmHg 85%
    07:00 +10°C° 0 mm 3 mps 713 mmHg 80%
    08:00 +11°C° 0 mm 3 mps 713 mmHg 74%
    09:00 +14°C° 0 mm 2 mps 713 mmHg 69%
    10:00 +15°C° 0 mm 2 mps 713 mmHg 65%
    11:00 +16°C° 0 mm 2 mps 713 mmHg 61%
    12:00 +17°C° 0 mm 2 mps 713 mmHg 56%
    13:00 +18°C° 0 mm 2 mps 713 mmHg 55%
    14:00 +18°C° 0 mm 2 mps 713 mmHg 53%
    15:00 +19°C° 0 mm 2 mps 713 mmHg 51%
    16:00 +18°C° 0 mm 2 mps 713 mmHg 54%
    17:00 +18°C° 0 mm 2 mps 712 mmHg 57%
    18:00 +17°C° 0 mm 2 mps 712 mmHg 60%
    19:00 +16°C° 0 mm 2 mps 713 mmHg 65%
    20:00 +14°C° 0 mm 3 mps 713 mmHg 70%
    21:00 +12°C° 0 mm 3 mps 713 mmHg 75%
    22:00 +12°C° 0 mm 3 mps 713 mmHg 78%
    23:00 +12°C° 0 mm 2 mps 714 mmHg 81%

    8 April, Wednesday

    Time Temperature Precipitation Wind Pressure Humidity
    00:00 +10°C° 0 mm 2 mps 714 mmHg 83%
    01:00 +10°C° 0 mm 2 mps 714 mmHg 82%
    02:00 +10°C° 0 mm 2 mps 713 mmHg 80%
    03:00 +11°C° 0 mm 1 mps 713 mmHg 79%
    04:00 +11°C° 0 mm 1 mps 713 mmHg 79%
    05:00 +11°C° 0 mm 1 mps 713 mmHg 79%
    06:00 +11°C° 0 mm 1 mps 713 mmHg 80%
    07:00 +12°C° 0 mm 2 mps 713 mmHg 75%
    08:00 +13°C° 0 mm 2 mps 713 mmHg 70%
    09:00 +14°C° 0 mm 2 mps 713 mmHg 65%
    10:00 +15°C° 0 mm 2 mps 713 mmHg 61%
    11:00 +16°C° 0 mm 2 mps 712 mmHg 56%
    12:00 +17°C° 0 mm 2 mps 712 mmHg 52%
    13:00 +18°C° 0 mm 3 mps 712 mmHg 49%
    14:00 +18°C° 0 mm 3 mps 712 mmHg 47%
    15:00 +19°C° 0 mm 3 mps 711 mmHg 44%
    16:00 +18°C° 0 mm 3 mps 711 mmHg 48%
    17:00 +17°C° 0 mm 3 mps 711 mmHg 52%
    18:00 +17°C° 0 mm 3 mps 711 mmHg 57%
    19:00 +16°C° 0 mm 3 mps 711 mmHg 60%
    20:00 +14°C° 0 mm 3 mps 711 mmHg 64%
    21:00 +13°C° 0 mm 3 mps 712 mmHg 68%
    22:00 +12°C° 0 mm 3 mps 712 mmHg 70%
    23:00 +13°C° 0 mm 2 mps 712 mmHg 72%
    Show more